Regional Weather Roundup
Issued by NWS

Home | Current Version | Previous Version | Text Only | Print | Product List | Glossary On
Versions: 1 2 3 4 5 6 7 8 9 10 11 12 13 14 15 16 17 18 19 20 21 22 23 24 25 26 27 28 29 30 31 32 33 34 35 36 37 38 39 40 41 42 43 44 45 46 47 48 49 50
000
ASUS43 KLMK 281102
RWRKY
KENTUCKY REGIONAL WEATHER ROUNDUP
NATIONAL WEATHER SERVICE LOUISVILLE KY
700 AM EDT WED SEP 28 2016

NOTE "FAIR" INDICATES FEW OR NO CLOUDS BELOW 12,000 FEET
WITH NO SIGNIFICANT WEATHER AND/OR OBSTRUCTIONS TO VISIBILITY.

KYZ001>023-026-027-061>063-070>075-281200-
WESTERN AND SOUTH CENTRAL KENTUCKY

CITY           SKY/WX    TMP DP  RH WIND       PRES   REMARKS
PADUCAH        CLEAR     60  49  66 SW8       29.85S
HENDERSON      PTCLDY    59  48  67 SW12      29.81S
OWENSBORO      CLEAR    N/A N/A N/A VRB5      29.84
HOPKINSVILLE   CLEAR     56  48  75 S5        29.88F
BOWLING GREEN  CLEAR     56  47  71 S5        29.89F
GLASGOW        CLEAR     52  48  85 CALM      29.91S
$$

KYZ024-025-028>034-038-045-046-053-281200-
NORTH CENTRAL KENTUCKY

CITY           SKY/WX    TMP DP  RH WIND       PRES   REMARKS
LOUISVILLE/SDF PTCLDY    63  46  54 S7        29.83S
LOUISVILLE/LOU MOCLDY    60  47  61 S5        29.84F
FORT KNOX      PTCLDY    55  47  76 S9        29.83F
$$

KYZ035>037-039>044-047>052-055>060-089>105-281200-
NORTHEAST KENTUCKY

CITY           SKY/WX    TMP DP  RH WIND       PRES   REMARKS
LEXINGTON      MOCLDY    56  45  66 S9        29.89S
COVINGTON      MOCLDY    57  48  72 S12       29.82S
FRANKFORT      PTCLDY    57  45  64 S7        29.86S
$$

KYZ054-064>069-076>088-106>120-281200-
SOUTHEAST KENTUCKY

CITY           SKY/WX    TMP DP  RH WIND       PRES   REMARKS
JACKSON        CLEAR     50  45  83 CALM      29.93F
LONDON         CLEAR     47  43  86 CALM      29.94F
SOMERSET       CLEAR     46  46 100 CALM      29.95S
MIDDLESBORO    CLEAR     45  45 100 CALM      29.99R
MONTICELLO     SUNNY     47  45  93 W12       29.96S
$$




USA.gov is the U.S. government's official web portal to all federal, state and local government web resources and services.